[[{"header":{"parameterUnit":"m.s-1","parameterCategory":1,"la1":30.2991,"la2":30.254,"lo1":-89.0895,"lo2":-89.0444,"dy":0.0017,"dx":0.0017,"nx":28,"ny":28,"refTime":"2024-06-12T09:00:00:Z","depth":0,"parameterNumber":2,"parameterNumberName":"U-component_of_WINDS"},"data":[0,0,0,0,0,0,0,0,0,0,0,0,0,0,0,0,0,0,0,0,0,0,0,0,0,0,0,0,0,0,0,0,0,0,0,0,0,0,0,0,0,0,0,0,0,0,0,0,0,0,0,0,0,0,0,0,0,0,-0.955,-0.9549,0,-0.9526,-0.9526,-0.9526,-0.945,-0.9449,-0.9447,-0.9446,-0.9424,-0.9425,-0.9426,0,0,0,0,0,0,0,0,0,0,0,0,0,-0.953,-0.9531,-0.955,-0.9549,-0.9549,-0.9526,-0.9526,-0.9526,-0.9451,-0.9449,-0.9447,-0.9445,-0.9423,-0.9424,-0.9426,0,0,0,0,0,0,0,0,0,0,0,0,0,-0.9526,-0.9531,-0.955,-0.9509,-0.9505,-0.9526,-0.9526,-0.9526,-0.9451,-0.9449,-0.9446,-0.9444,-0.9423,-0.9424,-0.9426,-0.9485,0,0,-0.943,-0.9431,0,0,0,0,0,0,0,0,-0.9526,-0.9527,-0.9515,-0.9512,-0.9507,-0.9489,-0.9511,-0.9512,-0.9452,-0.9472,-0.9445,-0.9443,-0.9447,-0.9447,-0.9448,-0.9484,-0.9484,-0.943,-0.9431,-0.9432,-0.9432,0,0,0,0,0,0,0,-0.9527,-0.9527,-0.954,-0.9515,-0.951,-0.9492,-0.9489,-0.9511,-0.9474,-0.947,-0.9464,-0.9462,-0.9445,-0.9447,-0.9447,-0.9483,-0.943,-0.9432,-0.9433,-0.9433,-0.9566,-0.9568,0,0,0,0,0,0,-0.9533,-0.9528,-0.9541,-0.954,-0.9511,-0.9494,-0.9491,-0.9497,-0.9474,-0.9468,-0.9465,-0.9459,-0.9445,-0.9445,-0.9446,-0.9513,-0.9432,-0.9433,-0.9434,-0.9563,-0.9566,-0.9569,0,0,0,0,0,0,-0.9533,-0.9535,-0.9542,-0.9532,-0.9532,-0.9497,-0.9506,-0.9498,-0.95,-0.947,-0.9463,-0.9473,-0.9443,-0.9444,-0.9476,-0.9512,-0.9434,-0.9435,-0.956,-0.9564,-0.9568,-0.965,0,0,0,0,0,0,-0.9532,-0.9535,-0.9557,-0.9533,-0.9533,-0.9573,-0.9508,-0.95,-0.9502,-0.9495,-0.9476,-0.947,-0.9441,-0.9474,-0.9477,-0.9512,-0.9437,-0.9557,-0.9562,-0.9567,-0.9644,-0.9656,-0.9667,0,0,0,0,0,-0.9532,-0.9582,-0.9559,-0.9561,-0.956,-0.9575,-0.9575,-0.954,-0.9506,-0.9528,-0.9508,-0.9471,-0.9507,-0.9478,-0.9481,-0.9517,-0.9554,-0.9561,-0.9566,-0.9639,-0.9654,-0.9666,0,0,0,0,0,0,-0.9613,-0.9578,-0.9552,-0.9596,-0.9589,-0.9562,-0.9589,-0.9557,-0.956,-0.9553,-0.9509,-0.9506,-0.9544,-0.9533,-0.9502,-0.9573,-0.9524,-0.9531,-0.9578,-0.9592,-0.9604,-0.9606,-0.9438,0,0,0,0,0,-0.9635,-0.965,-0.9619,-0.9661,-0.9658,-0.9625,-0.963,-0.9603,-0.9594,-0.9591,-0.9574,-0.9567,-0.9576,-0.9584,-0.9591,-0.9641,-0.9636,-0.9668,-0.9679,-0.9689,-0.9695,-0.972,-0.9734,-0.9589,-0.9589,-0.9589,0,0,-0.9683,-0.9666,-0.9678,-0.9677,-0.9668,-0.9684,-0.9623,-0.9643,-0.9654,-0.9594,-0.9623,-0.961,-0.9599,-0.9641,-0.9658,-0.9633,-0.9734,-0.9696,-0.9704,-0.9705,-0.9728,-0.9742,-0.9754,-0.9593,-0.9592,-0.9591,0,0,-0.9777,-0.9766,-0.9799,-0.9791,-0.9778,-0.9755,-0.9763,-0.974,-0.9729,-0.9757,-0.9712,-0.9725,-0.9743,-0.9736,-0.9736,-0.9826,-0.9792,-0.9829,-0.989,-0.9915,-0.9926,-0.9936,-0.9968,-0.998,-0.9836,-0.9836,-0.9836,0,-0.9839,-0.9861,-0.982,-0.9843,-0.9843,-0.9788,-0.9821,-0.9816,-0.9806,-0.9808,-0.978,-0.9799,-0.9788,-0.9827,-0.9849,-0.985,-0.9858,-0.9832,-0.9928,-0.9937,-0.9946,-0.9976,-0.9988,-0.9841,-0.984,-0.984,-0.9839,0,-0.9936,-0.9952,-0.998,-0.9971,-0.9974,-1.0002,-0.9966,-0.9975,-0.9947,-0.9927,-0.9956,-0.994,-0.9943,-0.995,-0.9924,-0.9985,-0.9969,-0.9935,-0.9886,-0.9965,-0.9992,-1.0004,-0.9848,-0.9846,-0.9844,-0.9843,0,0,-1.0083,-1.0049,-1.0061,-1.0055,-1.0036,-1.0047,-1.0072,-1.0073,-1.0081,-1.0076,-1.0096,-1.0111,-1.0078,-1.0077,-1.005,-1.0072,-1.0144,-1.0034,-1.0033,-1.0056,-1.0209,-1.0236,-1.025,-1.012,-1.0122,-1.0124,-1.021,0,-1.0173,-1.0213,-1.0177,-1.0224,-1.0238,-1.0184,-1.0206,-1.0196,-1.0178,-1.0187,-1.0166,-1.0177,-1.0133,-1.0132,-1.0152,-1.0131,-1.0174,-1.0124,-1.0139,-1.014,-1.0144,-1.0264,-1.0292,-1.0374,-1.0221,-1.0222,-1.0224,0,-1.0284,-1.0282,-1.033,-1.0306,-1.0311,-1.0331,-1.0328,-1.0337,-1.0325,-1.031,-1.0308,-1.0274,-1.0296,-1.0247,-1.0277,-1.0244,-1.0247,-1.0238,-1.024,-1.0241,-1.0187,-1.0268,-1.04,-1.0412,-1.024,-1.0239,-1.0238,0,-1.0386,-1.0396,-1.0426,-1.0423,-1.0395,-1.041,-1.04,-1.0385,-1.0387,-1.0385,-1.0386,-1.0387,-1.0388,-1.039,-1.0356,-1.0324,-1.0391,-1.0339,-1.0379,-1.038,-1.0396,-1.0396,-1.0531,-1.0398,-1.0398,-1.0397,-1.0397,0,-1.0491,-1.0523,-1.0471,-1.049,-1.0523,-1.0481,-1.0515,-1.0499,-1.0486,-1.05,-1.0454,-1.0469,-1.0423,-1.0433,-1.0407,-1.0436,-1.0437,-1.0425,-1.0418,-1.0429,-1.0431,-1.0432,-1.0425,-1.04,-1.04,-1.0399,-1.0399,0,-1.0612,-1.0578,-1.0607,-1.0578,-1.0571,-1.0598,-1.0573,-1.0589,-1.0566,-1.0584,-1.0586,-1.0551,-1.056,-1.0526,-1.053,-1.0512,-1.0555,-1.0538,-1.0559,-1.0554,-1.0596,-1.0592,-1.0736,-1.0753,-1.0609,-1.0611,-1.0612,0,-1.0681,-1.0704,-1.0677,-1.0682,-1.0674,-1.0684,-1.0686,-1.0644,-1.0648,-1.0635,-1.0652,-1.0657,-1.0659,-1.0675,-1.065,-1.0652,-1.0635,-1.0685,-1.0636,-1.0646,-1.0636,-1.0635,-1.0637,-1.0696,-1.0698,-1.07,-1.0701,0,-1.0808,-1.0789,-1.0794,-1.0792,-1.0795,-1.0792,-1.0786,-1.0793,-1.0748,-1.0755,-1.0763,-1.0764,-1.0767,-1.0772,-1.0768,-1.0757,-1.0722,-1.0716,-1.0726,-1.0738,-1.075,-1.0744,-1.0588,-1.0714,-1.0712,-1.0711,-1.0711,-1.071,-1.0905,-1.0922,-1.0905,-1.0911,-1.0902,-1.0896,-1.0909,-1.0887,-1.0893,-1.0891,-1.0866,-1.0879,-1.0864,-1.0856,-1.0848,-1.0857,-1.0834,-1.0848,-1.0851,-1.0855,-1.0862,-1.0747,-1.0857,-1.0856,-1.0856,-1.0855,-1.0855,0,-1.1029,-1.1015,-1.1021,-1.1012,-1.1017,-1.0981,-1.0972,-1.0978,-1.099,-1.0979,-1.0981,-1.0989,-1.0994,-1.0968,-1.0969,-1.0981,-1.0965,-1.0983,-1.0982,-1.098,-1.0883,-1.0875,-1.0996,-1.0996,-1.0996,-1.0996,-1.0996,-1.0996,-1.1094,-1.1122,-1.1101,-1.1123,-1.1108,-1.112,-1.1118,-1.1112,-1.1103,-1.1114,-1.1117,-1.11,-1.1083,-1.1082,-1.1084,-1.1076,-1.1079,-1.1103,-1.109,-1.1,-1.0987,-1.0974,-1.0966,-1.1104,-1.1104,-1.1185,-1.1186,-1.1186]},{"header":{"parameterUnit":"m.s-1","parameterCategory":1,"la1":30.2991,"la2":30.254,"lo1":-89.0895,"lo2":-89.0444,"dy":0.0017,"dx":0.0017,"nx":28,"ny":28,"refTime":"2024-06-12T09:00:00:Z","depth":0,"parameterNumber":3,"parameterNumberName":"V-component_of_WINDS"},"data":[0,0,0,0,0,0,0,0,0,0,0,0,0,0,0,0,0,0,0,0,0,0,0,0,0,0,0,0,0,0,0,0,0,0,0,0,0,0,0,0,0,0,0,0,0,0,0,0,0,0,0,0,0,0,0,0,0,0,-3.1905,-3.1906,0,-3.1993,-3.1994,-3.1995,-3.1982,-3.198,-3.1979,-3.1978,-3.2063,-3.2067,-3.2071,0,0,0,0,0,0,0,0,0,0,0,0,0,-3.1724,-3.1727,-3.1905,-3.1906,-3.1908,-3.1993,-3.1994,-3.1995,-3.1982,-3.198,-3.1979,-3.1977,-3.2062,-3.2067,-3.2071,0,0,0,0,0,0,0,0,0,0,0,0,0,-3.1806,-3.1728,-3.1905,-3.1911,-3.1913,-3.1992,-3.1994,-3.1995,-3.1983,-3.198,-3.1978,-3.1976,-3.2061,-3.2066,-3.2072,-3.2149,0,0,-3.2088,-3.2091,0,0,0,0,0,0,0,0,-3.1801,-3.1813,-3.1909,-3.1911,-3.1913,-3.1974,-3.1961,-3.2047,-3.1983,-3.1956,-3.1978,-3.1975,-3.2035,-3.2043,-3.2064,-3.2153,-3.2157,-3.2089,-3.2092,-3.2094,-3.2096,0,0,0,0,0,0,0,-3.1796,-3.1809,-3.194,-3.1911,-3.1913,-3.1909,-3.1918,-3.1977,-3.2007,-3.1958,-3.1957,-3.1968,-3.2036,-3.2059,-3.2066,-3.2158,-3.2089,-3.2093,-3.2097,-3.2099,-3.2315,-3.2317,0,0,0,0,0,0,-3.1789,-3.1804,-3.1937,-3.1942,-3.1851,-3.1914,-3.1924,-3.1957,-3.2006,-3.2012,-3.197,-3.1967,-3.205,-3.2059,-3.2069,-3.2162,-3.2094,-3.2099,-3.2103,-3.2312,-3.2315,-3.2318,0,0,0,0,0,0,-3.1785,-3.1801,-3.1933,-3.1873,-3.189,-3.1919,-3.1956,-3.196,-3.1982,-3.2015,-3.202,-3.1988,-3.2049,-3.2061,-3.2129,-3.2165,-3.2102,-3.2107,-3.2309,-3.2313,-3.2317,-3.235,0,0,0,0,0,0,-3.178,-3.1799,-3.183,-3.1874,-3.1893,-3.1994,-3.1958,-3.1963,-3.1992,-3.199,-3.2033,-3.2038,-3.2048,-3.2121,-3.2135,-3.2172,-3.2111,-3.2306,-3.2311,-3.2315,-3.2346,-3.2355,-3.2362,0,0,0,0,0,-3.1773,-3.1835,-3.1832,-3.1848,-3.1932,-3.1996,-3.2007,-3.2018,-3.1995,-3.2026,-3.2047,-3.2037,-3.2159,-3.2128,-3.2144,-3.2182,-3.2304,-3.231,-3.2315,-3.2343,-3.2353,-3.2362,0,0,0,0,0,0,-3.1793,-3.1841,-3.1838,-3.1916,-3.1952,-3.1994,-3.2032,-3.2029,-3.2071,-3.2066,-3.2077,-3.2087,-3.2156,-3.2176,-3.2141,-3.226,-3.2228,-3.2237,-3.2244,-3.2254,-3.2262,-3.2255,-3.2116,0,0,0,0,0,-3.1807,-3.1856,-3.1895,-3.196,-3.1979,-3.2003,-3.2031,-3.2036,-3.2074,-3.2088,-3.2114,-3.215,-3.2196,-3.2227,-3.2271,-3.2349,-3.2358,-3.2383,-3.2391,-3.2398,-3.2405,-3.2447,-3.2459,-3.2336,-3.2336,-3.2336,0,0,-3.1836,-3.1868,-3.1898,-3.1965,-3.1994,-3.2043,-3.2015,-3.2069,-3.2105,-3.2096,-3.2163,-3.2183,-3.2223,-3.2297,-3.233,-3.2315,-3.2441,-3.2405,-3.241,-3.2413,-3.2454,-3.2466,-3.2476,-3.234,-3.2339,-3.2339,0,0,-3.1913,-3.1943,-3.2001,-3.203,-3.2074,-3.209,-3.2104,-3.2146,-3.2159,-3.2227,-3.2221,-3.2263,-3.2343,-3.2372,-3.2397,-3.2486,-3.2478,-3.25,-3.2541,-3.2582,-3.2592,-3.26,-3.2631,-3.2642,-3.2507,-3.2507,-3.2507,0,-3.1943,-3.2018,-3.203,-3.2085,-3.2114,-3.2109,-3.2167,-3.2195,-3.2251,-3.227,-3.2253,-3.2353,-3.238,-3.246,-3.2482,-3.2503,-3.2518,-3.2495,-3.259,-3.2598,-3.2606,-3.2636,-3.2648,-3.251,-3.2509,-3.2509,-3.2509,0,-3.2052,-3.2104,-3.2145,-3.2201,-3.2234,-3.229,-3.231,-3.2342,-3.2345,-3.2362,-3.243,-3.2462,-3.2513,-3.2532,-3.2535,-3.2613,-3.2602,-3.2587,-3.2556,-3.262,-3.2648,-3.2659,-3.2513,-3.2512,-3.2511,-3.2511,0,0,-3.2143,-3.2206,-3.222,-3.2245,-3.2294,-3.2334,-3.2389,-3.244,-3.2467,-3.2506,-3.2552,-3.262,-3.2606,-3.2635,-3.2641,-3.2677,-3.2744,-3.2658,-3.2659,-3.2672,-3.2831,-3.2841,-3.2854,-3.274,-3.2742,-3.2744,-3.2827,0,-3.2225,-3.2324,-3.2336,-3.2423,-3.2471,-3.2467,-3.2515,-3.255,-3.2567,-3.2609,-3.2628,-3.2676,-3.2655,-3.2672,-3.2708,-3.2728,-3.2776,-3.2723,-3.2781,-3.2783,-3.277,-3.2868,-3.2879,-3.2956,-3.2838,-3.284,-3.2841,0,-3.2333,-3.2376,-3.2468,-3.251,-3.253,-3.2573,-3.2621,-3.2662,-3.27,-3.271,-3.2742,-3.2744,-3.2799,-3.2766,-3.2843,-3.2806,-3.2831,-3.2845,-3.2848,-3.2853,-3.2815,-3.2875,-3.2981,-3.2992,-3.2859,-3.2857,-3.2856,0,-3.2389,-3.247,-3.2536,-3.2557,-3.2608,-3.2638,-3.266,-3.2697,-3.2727,-3.2768,-3.2787,-3.2834,-3.2859,-3.2895,-3.2908,-3.2883,-3.2983,-3.2952,-3.2992,-3.2992,-3.3013,-3.3011,-3.3123,-3.303,-3.303,-3.303,-3.3029,0,-3.2478,-3.2534,-3.2562,-3.2602,-3.2664,-3.2678,-3.2739,-3.276,-3.2793,-3.2836,-3.2836,-3.2876,-3.2892,-3.2935,-3.2945,-3.3006,-3.3018,-3.3027,-3.3029,-3.3026,-3.3025,-3.3042,-3.3036,-3.3033,-3.3032,-3.3032,-3.3031,0,-3.2551,-3.2572,-3.2643,-3.2686,-3.2698,-3.2742,-3.2778,-3.2816,-3.2833,-3.2888,-3.2901,-3.2928,-3.2978,-3.2996,-3.3056,-3.3063,-3.3134,-3.3132,-3.3121,-3.3122,-3.3161,-3.3156,-3.3287,-3.3304,-3.3201,-3.3202,-3.3202,0,-3.2606,-3.265,-3.2697,-3.2727,-3.275,-3.2798,-3.2829,-3.2844,-3.2875,-3.2923,-3.2955,-3.3005,-3.3046,-3.3126,-3.315,-3.3196,-3.3194,-3.3237,-3.3201,-3.3197,-3.3194,-3.3191,-3.3195,-3.3243,-3.3244,-3.3245,-3.3246,0,-3.2701,-3.2709,-3.2754,-3.2803,-3.284,-3.2878,-3.2915,-3.2939,-3.296,-3.2995,-3.3047,-3.3079,-3.3141,-3.3191,-3.3238,-3.326,-3.3256,-3.3257,-3.3269,-3.3266,-3.3258,-3.3262,-3.3139,-3.3254,-3.3253,-3.3252,-3.3252,-3.3252,-3.2766,-3.2804,-3.2844,-3.2894,-3.2924,-3.2959,-3.2997,-3.3019,-3.3063,-3.3116,-3.3122,-3.3177,-3.3214,-3.3278,-3.3302,-3.3345,-3.3333,-3.335,-3.3354,-3.3358,-3.336,-3.3252,-3.3353,-3.3353,-3.3353,-3.3353,-3.3353,0,-3.286,-3.2886,-3.2931,-3.2984,-3.3023,-3.3018,-3.3059,-3.3091,-3.3141,-3.3176,-3.3217,-3.3276,-3.3324,-3.3352,-3.34,-3.3429,-3.3429,-3.3441,-3.3439,-3.3443,-3.3369,-3.3353,-3.3441,-3.3441,-3.3441,-3.3441,-3.3441,-3.3441,-3.2914,-3.2978,-3.2991,-3.307,-3.3094,-3.315,-3.3174,-3.3206,-3.3234,-3.3301,-3.3341,-3.336,-3.3392,-3.3442,-3.3485,-3.3492,-3.3509,-3.3523,-3.3529,-3.3458,-3.3449,-3.344,-3.3426,-3.3527,-3.3527,-3.36,-3.36,-3.3601]}]]